Weather History for KCHK - April, 2014

Change the Weather History Date:

Wednesday, April 9, 2014

  Actual Average Record
Temperature  
Mean Temperature 58 °F -  
Max Temperature 80 °F 72 °F 91 °F (2011)
Min Temperature 35 °F 45 °F 28 °F (2003)
Degree Days  
Heating Degree Days 8    
Growing Degree Days 8 (Base 50)    
Moisture  
Dew Point 41 °F    
Average Humidity 59    
Maximum Humidity 100    
Minimum Humidity 28    
Precipitation  
Precipitation 0.00 in - - ()
Sea Level Pressure  
Sea Level Pressure 30.05 in    
Wind  
Wind Speed 7 mph (South)    
Max Wind Speed 18 mph    
Max Gust Speed 26 mph    
Visibility 10 miles    
Events      
Averages and records for this station are not official NWS values.
T = Trace of Precipitation, MM = Missing Value Source: NWS Daily Summary

Daily Weather History Graph

Daily Weather History Graph

Search for Another Location

Airport or City:

Trip Planner

Search our weather history database for the weather conditions in past years. The results will help you decide how hot, cold, wet, or windy it might be!

Date:

Astronomy

Apr. 09, 2014 Rise Set
Actual Time 7:07 AM CDT 7:59 PM CDT
Civil Twilight 6:41 AM CDT 8:25 PM CDT
Nautical Twilight 6:11 AM CDT 8:56 PM CDT
Astronomical Twilight 5:39 AM CDT 9:27 PM CDT
Moon 3:00 PM CDT (4/9) 3:45 AM CDT (4/9)
Length of Visible Light 13h 43m
Length of Day
12h 52m
Waxing Gibbous, 72% of the Moon is Illuminated
Apr 9
Waxing Gibbous
Apr 15
Full
Apr 22
Last Quarter
Apr 29
New
May 6
First Quarter

Hourly Weather History & Observations

Time (CDT) Temp. Windchill Dew Point Humidity Pressure Visibility Wind Dir Wind Speed Gust Speed Precip Events Conditions
12:15 AM 42.8 °F - 37.4 °F 81% 30.14 in 10.0 mi Calm Calm - N/A   Clear
12:35 AM 42.8 °F 40.1 °F 35.6 °F 76% 30.14 in 10.0 mi NE 4.6 mph - N/A   Clear
12:55 AM 41.0 °F 39.0 °F 35.6 °F 81% 30.14 in 10.0 mi NE 3.5 mph - N/A   Clear
1:15 AM 42.8 °F - 35.6 °F 76% 30.14 in 10.0 mi Calm Calm - N/A   Clear
1:35 AM 37.4 °F 32.8 °F 35.6 °F 93% 30.15 in 10.0 mi WSW 5.8 mph - N/A   Scattered Clouds
1:55 AM 37.4 °F - 35.6 °F 93% 30.15 in 10.0 mi Calm Calm - N/A   Scattered Clouds
2:15 AM 39.2 °F - 37.4 °F 93% 30.15 in 10.0 mi Calm Calm - N/A   Clear
2:35 AM 37.4 °F 34.9 °F 35.6 °F 93% 30.15 in 10.0 mi West 3.5 mph - N/A   Clear
2:55 AM 37.4 °F 34.9 °F 37.4 °F 100% 30.15 in 10.0 mi WNW 3.5 mph - N/A   Clear
3:15 AM 37.4 °F - 35.6 °F 93% 30.15 in 10.0 mi Calm Calm - N/A   Clear
3:35 AM 37.4 °F - 35.6 °F 93% 30.15 in 10.0 mi Calm Calm - N/A   Clear
3:55 AM 37.4 °F 34.9 °F 35.6 °F 93% 30.16 in 10.0 mi West 3.5 mph - N/A   Clear
4:15 AM 37.4 °F - 35.6 °F 93% 30.15 in 10.0 mi Calm Calm - N/A   Clear
4:35 AM 35.6 °F - 33.8 °F 93% 30.15 in 10.0 mi Calm Calm - N/A   Clear
4:55 AM 37.4 °F - 35.6 °F 93% 30.15 in 10.0 mi Calm Calm - N/A   Clear
5:15 AM 35.6 °F - 33.8 °F 93% 30.15 in 10.0 mi Calm Calm - N/A   Clear
5:35 AM 37.4 °F - 35.6 °F 93% 30.15 in 10.0 mi Calm Calm - N/A   Clear
5:55 AM 37.4 °F - 35.6 °F 93% 30.14 in 10.0 mi Calm Calm - N/A   Clear
6:15 AM 35.6 °F - 33.8 °F 93% 30.15 in 10.0 mi Calm Calm - N/A   Clear
6:35 AM 37.4 °F - 37.4 °F 100% 30.15 in 10.0 mi Calm Calm - N/A   Clear
6:55 AM 35.6 °F - 35.6 °F 100% 30.16 in 10.0 mi Calm Calm - N/A   Clear
7:15 AM 35.6 °F - 35.6 °F 100% 30.16 in 10.0 mi Calm Calm - N/A   Clear
7:35 AM 35.6 °F 32.8 °F 35.6 °F 100% 30.16 in 10.0 mi SE 3.5 mph - N/A   Clear
7:55 AM 37.4 °F 33.8 °F 35.6 °F 93% 30.17 in 10.0 mi SSE 4.6 mph - N/A   Clear
8:15 AM 39.2 °F 35.9 °F 39.2 °F 100% 30.17 in 10.0 mi SE 4.6 mph - N/A   Clear
8:35 AM 42.8 °F 40.1 °F 39.2 °F 87% 30.18 in 10.0 mi SE 4.6 mph - N/A   Clear
8:55 AM 48.2 °F - 42.8 °F 82% 30.17 in 10.0 mi SE 3.5 mph - N/A   Clear
9:15 AM 50.0 °F - 42.8 °F 76% 30.17 in 10.0 mi SSE 3.5 mph - N/A   Clear
9:35 AM 53.6 °F - 44.6 °F 72% 30.17 in 10.0 mi SSE 5.8 mph - N/A   Clear
9:55 AM 57.2 °F - 44.6 °F 63% 30.16 in 10.0 mi South 5.8 mph - N/A   Clear
10:15 AM 60.8 °F - 41.0 °F 48% 30.16 in 10.0 mi South 9.2 mph 16.1 mph N/A   Clear
10:55 AM 66.2 °F - 39.2 °F 37% 30.15 in 10.0 mi South 17.3 mph 20.7 mph N/A   Clear
11:15 AM 68.0 °F - 41.0 °F 37% 30.14 in 10.0 mi South 18.4 mph 24.2 mph N/A   Clear
11:35 AM 68.0 °F - 41.0 °F 37% 30.13 in 10.0 mi SSW 18.4 mph 21.9 mph N/A   Clear
11:55 AM 69.8 °F - 41.0 °F 35% 30.12 in 10.0 mi SSW 17.3 mph - N/A   Clear
12:15 PM 71.6 °F - 41.0 °F 33% 30.12 in 10.0 mi SSW 17.3 mph 23.0 mph N/A   Clear
12:35 PM 73.4 °F - 42.8 °F 33% 30.10 in 10.0 mi South 16.1 mph 20.7 mph N/A   Clear
12:55 PM 73.4 °F - 42.8 °F 33% 30.09 in 10.0 mi South 13.8 mph 19.6 mph N/A   Clear
1:15 PM 73.4 °F - 42.8 °F 33% 30.08 in 10.0 mi SSW 13.8 mph 21.9 mph N/A   Clear
1:35 PM 77.0 °F - 44.6 °F 32% 30.07 in 10.0 mi South 17.3 mph 25.3 mph N/A   Clear
1:55 PM 77.0 °F - 44.6 °F 32% 30.06 in 10.0 mi South 18.4 mph 24.2 mph N/A   Clear
2:15 PM 77.0 °F - 44.6 °F 32% 30.05 in 10.0 mi South 15.0 mph 25.3 mph N/A   Clear
2:35 PM 78.8 °F - 44.6 °F 30% 30.04 in 10.0 mi South 17.3 mph 25.3 mph N/A   Clear
2:55 PM 78.8 °F - 46.4 °F 32% 30.02 in 10.0 mi South 12.7 mph 18.4 mph N/A   Clear
3:15 PM 78.8 °F - 44.6 °F 30% 30.01 in 10.0 mi South 16.1 mph 25.3 mph N/A   Clear
3:35 PM 78.8 °F - 44.6 °F 30% 29.99 in 10.0 mi SSW 15.0 mph 24.2 mph N/A   Clear
3:55 PM 78.8 °F - 46.4 °F 32% 29.97 in 10.0 mi South 16.1 mph 24.2 mph N/A   Clear
4:15 PM 80.6 °F - 46.4 °F 30% 29.96 in 10.0 mi South 16.1 mph 23.0 mph N/A   Clear
4:35 PM 80.6 °F - 44.6 °F 28% 29.95 in 10.0 mi South 15.0 mph 25.3 mph N/A   Clear
4:55 PM 80.6 °F - 46.4 °F 30% 29.95 in 10.0 mi South 15.0 mph 23.0 mph N/A   Clear
5:15 PM 80.6 °F - 46.4 °F 30% 29.95 in 10.0 mi South 15.0 mph 18.4 mph N/A   Clear
5:35 PM 80.6 °F - 44.6 °F 28% 29.94 in 10.0 mi South 15.0 mph 21.9 mph N/A   Clear
5:55 PM 80.6 °F - 44.6 °F 28% 29.93 in 10.0 mi South 17.3 mph 23.0 mph N/A   Clear
6:15 PM 78.8 °F - 44.6 °F 30% 29.93 in 10.0 mi SSW 15.0 mph - N/A   Clear
6:35 PM 78.8 °F - 44.6 °F 30% 29.92 in 10.0 mi South 17.3 mph - N/A   Clear
6:55 PM 78.8 °F - 46.4 °F 32% 29.92 in 10.0 mi South 12.7 mph 21.9 mph N/A   Clear
7:15 PM 77.0 °F - 46.4 °F 34% 29.91 in 10.0 mi SSE 12.7 mph - N/A   Clear
7:35 PM 77.0 °F - 46.4 °F 34% 29.90 in 10.0 mi SSE 10.4 mph - N/A   Clear
7:55 PM 73.4 °F - 44.6 °F 36% 29.90 in 10.0 mi SSE 12.7 mph - N/A   Clear
8:15 PM 73.4 °F - 46.4 °F 38% 29.89 in 10.0 mi SSE 15.0 mph - N/A   Clear
8:35 PM 71.6 °F - 44.6 °F 38% 29.89 in 10.0 mi SSE 13.8 mph - N/A   Clear
8:55 PM 69.8 °F - 46.4 °F 43% 29.89 in 10.0 mi SSE 11.5 mph 19.6 mph N/A   Clear
9:15 PM 68.0 °F - 44.6 °F 43% 29.89 in 10.0 mi SSE 13.8 mph 19.6 mph N/A   Clear
9:35 PM 68.0 °F - 44.6 °F 43% 29.89 in 10.0 mi SSE 15.0 mph 18.4 mph N/A   Clear
9:55 PM 68.0 °F - 46.4 °F 46% 29.89 in 10.0 mi SSE 13.8 mph 21.9 mph N/A   Clear
10:15 PM 68.0 °F - 46.4 °F 46% 29.89 in 10.0 mi SSE 16.1 mph - N/A   Clear
10:35 PM 68.0 °F - 46.4 °F 46% 29.89 in 10.0 mi South 17.3 mph - N/A   Clear
10:55 PM 68.0 °F - 44.6 °F 43% 29.89 in 10.0 mi South 16.1 mph 24.2 mph N/A   Clear
11:15 PM 68.0 °F - 46.4 °F 46% 29.89 in 10.0 mi SSE 15.0 mph 20.7 mph N/A   Clear
11:35 PM 68.0 °F - 46.4 °F 46% 29.89 in 10.0 mi South 13.8 mph 26.5 mph N/A   Clear
11:55 PM 68.0 °F - 46.4 °F 46% 29.88 in 10.0 mi South 16.1 mph 23.0 mph N/A   Clear